Погода в Зимовники

Погода в Зимовники : погода сейчас, прогноз погоды и архив. Всё, что Вы хотите узнать о погоде в Зимовники!

Поиск расширенной информации на нашем сайте:

Другие новости

Новости СМИ2

Главная страница сайта

Новости сайта

03.07.2017

Напоминаем, что на нашем специализированном сайте Метеоцентр.Азия вы можете получить высокодетализированные автоматические прогнозы погоды по пунктам России, СНГ и мира в авиационном формате (включающие направление и скорость ветра, видимость, явления погоды, количество и форму облачности, нижнюю и верхнюю границу облачности).


Погода в Зимовники - сегодня

Время (UTC), дата Ветер
(°,м/с) 
Видим.   Явления Облачность Т
(°С)
Тd
(°С)
f(%) Тe
(°С)
Pmin
(гПа)
dP
(гПа)
Po
(мм)
O2
(г/м3)
Тmin Tmax R s Состояние
почвы
00 18.08.17 070 (В) 10 км    ясно 
+19 +2.9 34 +20  1014.2  -0.2  754  284           
03 18.08.17 060 (СВ) 10 км    3/0 верхняя 
[Ci fib]
+17.3 +3.3 39 +18  1016.7  2.5  756  286  +17.1        сухая 
06 18.08.17 080 (В) 5{10}  10 км    3/0 верхняя 
[Ci fib]
+28.1 +1.2 18 +28  1017.8  1.3  757  276           
09 18.08.17 080 (В) 6-11{13}  10 км    3/0 верхняя 
[Ci fib]
+32.7 -3 10 +33  1017.1  -0.5  757  273           
12 18.08.17 090 (В) 6-12{12}  10 км    3/0 верхняя 
[Ci fib]
+34 -3.8 9 +34  1016.6  -0.5  756  271           
15 18.08.17 090 (В) 4{12}  10 км    8/0 верхняя 
[Ci fib]
+33 -4.3 9 +33  1015.8  -0.8  756  272    +34.5       
18 18.08.17 070 (В) 10 км    ясно 
+26.8 -4.4 13 +27  1016.7  0.7  756  278           
21 18.08.17 090 (В) 10 км    3/0 верхняя 
[Ci fib]
+21.5 +2 28 +22  1017.9  1.1  757  283           
00 19.08.17 070 (В) 10 км    ясно 
+20.4 +6.9 42 +20  1017.9  -0.1  757  283           
03 19.08.17 090 (В) 10 км    8/0 верхняя 
[Ci fib]
+19.9 +6.9 43 +21  1019  1.1  758  284  +19.9        сухая 
06 19.08.17 060 (СВ) 10 км    8/0 верхняя 
[Ci fib]
+27 +6.8 28 +27  1019  0.2  758  277           
09 19.08.17 090 (В) 4{12}  10 км    6/0 верхняя 
[Ci fib]
+33.6 +0.1 12 +34  1018.4  -0.4  758  272           
12 19.08.17 090 (В) 3{11}  10 км    8/1 1000 м верхняя 
[Cu hum|Ci fib]
+34.4 -1.9 10 +34  1017.3  -1.1  757  271           
15 19.08.17 100 (В) 3{10}  10 км    4/0 средняя, верхняя 
[Ac trans|Ci fib]
+33.3 -2.7 10 +33  1017.1  -0.2  757  272    +35.1       
18 19.08.17 090 (В) 10 км    ясно 
+26 -3.6 14 +26  1017.8  0.5  757  279           
21 19.08.17 080 (В) 10 км    ясно 
+22 -2.4 19 +22  1017.9  757  283           
00 20.08.17 070 (В) 10 км    ясно 
+19.7 +0.4 27 +21  1018.2  0.2  757  285           
03 20.08.17 070 (В) 10 км    4/0 средняя, верхняя 
[Ac trans|Cc]
+18.7 +2.7 34 +19  1018.2  757  285  +18.2        сухая 
06 20.08.17 090 (В) 10 км    8/0 средняя, верхняя 
[Ac trans|Cc]
+28.4 +3 20 +28  1018.4  0.4  758  276           
09 20.08.17 080 (В) 5-11{11}  10 км    9/0 средняя, верхняя 
[Ac trans|Cc]
+30.8 +2.7 17 +31  1017.9  -0.3  757  274           
12 20.08.17 110 (В) 5{11}  10 км    8/0 средняя, верхняя 
[Ac trans|Cc]
+32.7 +3.2 16 +33  1016.7  -1.2  756  272           
15 20.08.17 090 (В) 5{11}  10 км    9/3 600 м кучево-дожд., средняя 
[Cb cap|Ac trans]
+30.4 +4 19 +30  1016.1  -0.8  756  273    +33.4       
18 20.08.17 130 (ЮВ) 5{11}  10 км    10/3 600 м кучево-дожд., средняя 
[Cb cap|Ac und]
+26.6 +8.9 33 +27  1017.1  757  276           
21 20.08.17 130 (ЮВ) 10 км    10/0 средняя 
[Ac und]
+25.2 +7.8 33 +25  1017.9  0.7  757  278           
00 21.08.17 110 (В) 5{12}  10 км    10/0 средняя 
[Ac und]
+25.9 +5.2 26 +26  1017.5  -0.3  757  278           
Время (UTC), дата Ветер
(°,м/с) 
Видим.   Явления Облачность Т
(°С)
Тd
(°С)
f(%) Тe
(°С)
Pmin
(гПа)
dP
(гПа)
Po
(мм)
O2
(г/м3)
Тmin Tmax R s Состояние
почвы

Для получения пояснительной информации подведите курсор к названию столбца.

ПОГОДА в Зимовники - архив

Всё, что Вы хотите узнать о погоде в Зимовники - удобно и подробно!

Выберите нужную дату (начиная с 1 января 2015* года) и нажмите кнопку "Найти".
Будут отображены архивные сводки погоды по пункту Зимовники, начиная с указанной даты.


Отображать данные в формате CSV (для использования в таблицах Excel)


Внимание! Наш архив погоды предназначен исключительно для личного некоммерческого использования в познавательных целях. Если Вам необходимы официальные справки о состоянии погоды (для производственных, юридических, коммерческих и т.п. целей), обращайтесь в органы Росгидромета.

*Примечание: данная дата относится к архиву по метеостанциям СССР (Россия, СНГ, Балтия).
Архив по метеостанциям Зарубежной Европы и Азии (кроме Китая) хранится 10 дней, по другим регионам земного шара (Китай, Африка, Америка, Австралия, Океания) - 1 день.

Зимовники - район местоположения метеостанции


Название, широта, долгота, высота метеостанции:
Зимовники 47.2°ш. 42.5°д. 72 м над ур. моря [Российская Федерация]

Дополнительная информация

В oтличие oт бoльшинства пoгoдных сайтoв мы публикуем пoдрoбную метеoинфoрмацию в детальнoм прoфессиoнальнoм фoрмате.

Характеристики температуры и влажнoсти вoздуха измеряются на высoте 2 м в тени вдали oт зданий и деревьев.
Скoрoсть ветра измеряется на высoте 10 м (на урoвне рoста челoвека скoрoсть ветра ниже в 1.5-2 раза). Если метеoстанция нахoдится в гoрoде или в лесу, тo скoрoсть ветра занижена на 2-4 м/с пo сравнению с oткрытым местoм. Скoрoсть ветра над акватoриями крупных рек и oзёр, а также на вершинах хoлмoв на 2-5 м/с выше, чем в oбычных услoвиях.
Атмoсфернoе давление в разных тoчках местнoсти мoжет значительнo oтличаться oт давления на метеoстанции, в зависимoсти oт услoвий рельефа (при пoдъёме на 10 м давление пoнижается примернo на 1 мм рт.ст.).